Time,TemperatureF,DewpointF,PressureIn,WindDirection,WindDirectionDegrees,WindSpeedMPH,WindSpeedGustMPH,Humidity,HourlyPrecipIn,Conditions,Clouds,dailyrainin,SoftwareType,DateUTC
2013-08-15 00:01:00,61.3,49.1,30.16,WNW,292,0.0,0.0,64,0.00,,,0.00,WUHU21623XXSP,2013-08-15 05:01:00,
2013-08-15 00:06:00,61.3,49.1,30.15,WNW,292,0.0,0.0,64,0.00,,,0.00,WUHU21623XXSP,2013-08-15 05:06:00,
2013-08-15 00:11:00,61.3,48.7,30.15,WNW,292,0.0,0.0,63,0.00,,,0.00,WUHU21623XXSP,2013-08-15 05:11:00,
2013-08-15 00:16:00,61.2,48.5,30.15,West,270,0.0,0.0,63,0.00,,,0.00,WUHU21623XXSP,2013-08-15 05:16:00,
2013-08-15 00:21:00,61.0,48.3,30.15,West,270,0.0,0.0,63,0.00,,,0.00,WUHU21623XXSP,2013-08-15 05:21:00,
2013-08-15 00:26:00,61.0,48.3,30.15,West,270,0.0,0.0,63,0.00,,,0.00,WUHU21623XXSP,2013-08-15 05:26:00,
2013-08-15 00:31:00,61.0,48.3,30.15,West,270,0.0,0.0,63,0.00,,,0.00,WUHU21623XXSP,2013-08-15 05:31:00,
2013-08-15 00:36:00,60.6,48.0,30.15,West,270,0.0,0.0,63,0.00,,,0.00,WUHU21623XXSP,2013-08-15 05:36:00,
2013-08-15 00:41:00,60.6,48.0,30.15,West,270,0.0,0.0,63,0.00,,,0.00,WUHU21623XXSP,2013-08-15 05:41:00,
2013-08-15 00:46:00,60.4,47.8,30.15,West,270,0.0,0.0,63,0.00,,,0.00,WUHU21623XXSP,2013-08-15 05:46:00,
2013-08-15 00:51:00,60.4,47.8,30.15,West,270,0.0,0.0,63,0.00,,,0.00,WUHU21623XXSP,2013-08-15 05:51:00,
2013-08-15 00:56:00,60.3,48.1,30.15,West,270,0.0,0.0,64,0.00,,,0.00,WUHU21623XXSP,2013-08-15 05:56:00,
2013-08-15 01:01:00,60.4,48.2,30.15,West,270,0.0,0.0,64,0.00,,,0.00,WUHU21623XXSP,2013-08-15 06:01:00,
2013-08-15 01:06:00,60.4,48.2,30.15,West,270,0.0,0.0,64,0.00,,,0.00,WUHU21623XXSP,2013-08-15 06:06:00,
2013-08-15 01:11:00,60.3,48.1,30.15,West,270,0.0,0.0,64,0.00,,,0.00,WUHU21623XXSP,2013-08-15 06:11:00,
2013-08-15 01:16:00,60.3,48.1,30.15,West,270,0.0,0.0,64,0.00,,,0.00,WUHU21623XXSP,2013-08-15 06:16:00,
2013-08-15 01:21:00,60.1,47.9,30.15,West,270,0.0,0.0,64,0.00,,,0.00,WUHU21623XXSP,2013-08-15 06:21:00,
2013-08-15 01:26:00,59.9,47.7,30.15,West,270,0.0,0.0,64,0.00,,,0.00,WUHU21623XXSP,2013-08-15 06:26:00,
2013-08-15 01:31:00,59.9,48.1,30.14,West,270,0.0,0.0,65,0.00,,,0.00,WUHU21623XXSP,2013-08-15 06:31:00,
2013-08-15 01:36:00,59.7,48.3,30.14,West,270,0.0,0.0,66,0.00,,,0.00,WUHU21623XXSP,2013-08-15 06:36:00,
2013-08-15 01:41:00,59.7,48.3,30.15,West,270,0.0,0.0,66,0.00,,,0.00,WUHU21623XXSP,2013-08-15 06:41:00,
2013-08-15 01:46:00,59.5,48.2,30.15,West,270,0.0,0.0,66,0.00,,,0.00,WUHU21623XXSP,2013-08-15 06:46:00,
2013-08-15 01:51:00,59.7,48.3,30.15,West,270,0.0,0.0,66,0.00,,,0.00,WUHU21623XXSP,2013-08-15 06:51:00,
2013-08-15 01:56:00,59.5,48.2,30.15,West,270,0.0,0.0,66,0.00,,,0.00,WUHU21623XXSP,2013-08-15 06:56:00,
2013-08-15 02:01:00,59.4,48.0,30.15,West,270,0.0,0.0,66,0.00,,,0.00,WUHU21623XXSP,2013-08-15 07:01:00,
2013-08-15 02:06:00,59.5,48.6,30.14,West,270,0.0,0.0,67,0.00,,,0.00,WUHU21623XXSP,2013-08-15 07:06:00,
2013-08-15 02:11:00,59.4,48.4,30.14,West,270,0.0,0.0,67,0.00,,,0.00,WUHU21623XXSP,2013-08-15 07:11:00,
2013-08-15 02:16:00,59.4,48.4,30.14,West,270,0.0,0.0,67,0.00,,,0.00,WUHU21623XXSP,2013-08-15 07:16:00,
2013-08-15 02:21:00,59.4,48.4,30.14,West,270,0.0,0.0,67,0.00,,,0.00,WUHU21623XXSP,2013-08-15 07:21:00,
2013-08-15 02:26:00,59.2,48.6,30.14,West,270,0.0,0.0,68,0.00,,,0.00,WUHU21623XXSP,2013-08-15 07:26:00,
2013-08-15 02:31:00,59.2,48.6,30.14,West,270,0.0,0.0,68,0.00,,,0.00,WUHU21623XXSP,2013-08-15 07:31:00,
2013-08-15 02:36:00,59.2,48.6,30.14,West,270,0.0,0.0,68,0.00,,,0.00,WUHU21623XXSP,2013-08-15 07:36:00,
2013-08-15 02:41:00,59.2,48.6,30.14,West,270,0.0,0.0,68,0.00,,,0.00,WUHU21623XXSP,2013-08-15 07:41:00,
2013-08-15 02:46:00,59.2,48.6,30.14,West,270,0.0,0.0,68,0.00,,,0.00,WUHU21623XXSP,2013-08-15 07:46:00,
2013-08-15 02:51:00,59.2,48.6,30.14,West,270,0.0,0.0,68,0.00,,,0.00,WUHU21623XXSP,2013-08-15 07:51:00,
2013-08-15 02:56:00,59.2,48.6,30.14,West,270,0.0,0.0,68,0.00,,,0.00,WUHU21623XXSP,2013-08-15 07:56:00,
2013-08-15 03:01:00,59.2,49.0,30.14,West,270,0.0,0.0,69,0.00,,,0.00,WUHU21623XXSP,2013-08-15 08:01:00,
2013-08-15 03:06:00,59.2,49.0,30.14,West,270,0.0,0.0,69,0.00,,,0.00,WUHU21623XXSP,2013-08-15 08:06:00,
2013-08-15 03:11:00,59.2,48.6,30.15,West,270,0.0,0.0,68,0.00,,,0.00,WUHU21623XXSP,2013-08-15 08:11:00,
2013-08-15 03:16:00,59.2,48.6,30.15,West,270,0.0,0.0,68,0.00,,,0.00,WUHU21623XXSP,2013-08-15 08:16:00,
2013-08-15 03:21:00,59.2,48.6,30.14,West,270,0.0,0.0,68,0.00,,,0.00,WUHU21623XXSP,2013-08-15 08:21:00,
2013-08-15 03:26:00,59.2,48.6,30.14,West,270,0.0,0.0,68,0.00,,,0.00,WUHU21623XXSP,2013-08-15 08:26:00,
2013-08-15 03:31:00,59.0,48.5,30.15,West,270,0.0,0.0,68,0.00,,,0.00,WUHU21623XXSP,2013-08-15 08:31:00,
2013-08-15 03:36:00,59.0,48.5,30.15,West,270,0.0,0.0,68,0.00,,,0.00,WUHU21623XXSP,2013-08-15 08:36:00,
2013-08-15 03:41:00,59.0,48.5,30.15,West,270,0.0,0.0,68,0.00,,,0.00,WUHU21623XXSP,2013-08-15 08:41:00,
2013-08-15 03:46:00,59.0,48.5,30.15,West,270,0.0,0.0,68,0.00,,,0.00,WUHU21623XXSP,2013-08-15 08:46:00,
2013-08-15 03:51:00,59.0,48.5,30.15,West,270,0.0,0.0,68,0.00,,,0.00,WUHU21623XXSP,2013-08-15 08:51:00,
2013-08-15 03:56:00,58.8,48.3,30.14,West,270,0.0,0.0,68,0.00,,,0.00,WUHU21623XXSP,2013-08-15 08:56:00,
2013-08-15 04:01:00,58.8,48.3,30.14,West,270,0.0,0.0,68,0.00,,,0.00,WUHU21623XXSP,2013-08-15 09:01:00,
2013-08-15 04:06:00,58.8,48.7,30.14,West,270,0.0,0.0,69,0.00,,,0.00,WUHU21623XXSP,2013-08-15 09:06:00,
2013-08-15 04:11:00,58.6,48.5,30.14,West,270,0.0,0.0,69,0.00,,,0.00,WUHU21623XXSP,2013-08-15 09:11:00,
2013-08-15 04:16:00,58.5,48.3,30.14,West,270,0.0,0.0,69,0.00,,,0.00,WUHU21623XXSP,2013-08-15 09:16:00,
2013-08-15 04:21:00,58.5,48.3,30.14,West,270,0.0,0.0,69,0.00,,,0.00,WUHU21623XXSP,2013-08-15 09:21:00,
2013-08-15 04:26:00,58.3,48.1,30.14,West,270,0.0,0.0,69,0.00,,,0.00,WUHU21623XXSP,2013-08-15 09:26:00,
2013-08-15 04:31:00,58.1,48.0,30.15,West,270,0.0,0.0,69,0.00,,,0.00,WUHU21623XXSP,2013-08-15 09:31:00,
2013-08-15 04:36:00,58.1,48.4,30.14,West,270,0.0,0.0,70,0.00,,,0.00,WUHU21623XXSP,2013-08-15 09:36:00,
2013-08-15 04:41:00,58.1,48.4,30.14,West,270,0.0,0.0,70,0.00,,,0.00,WUHU21623XXSP,2013-08-15 09:41:00,
2013-08-15 04:46:00,58.1,48.4,30.14,West,270,0.0,0.0,70,0.00,,,0.00,WUHU21623XXSP,2013-08-15 09:46:00,
2013-08-15 04:51:00,57.9,48.6,30.15,WSW,247,0.0,0.0,71,0.00,,,0.00,WUHU21623XXSP,2013-08-15 09:51:00,
2013-08-15 04:56:00,57.9,48.6,30.14,SW,225,0.0,0.0,71,0.00,,,0.00,WUHU21623XXSP,2013-08-15 09:56:00,
2013-08-15 05:01:00,57.9,48.6,30.14,SW,225,0.0,0.0,71,0.00,,,0.00,WUHU21623XXSP,2013-08-15 10:01:00,
2013-08-15 05:06:00,57.7,48.7,30.14,SW,225,0.0,0.0,72,0.00,,,0.00,WUHU21623XXSP,2013-08-15 10:06:00,
2013-08-15 05:11:00,57.7,48.7,30.14,SW,225,0.0,0.0,72,0.00,,,0.00,WUHU21623XXSP,2013-08-15 10:11:00,
2013-08-15 05:16:00,57.7,48.7,30.14,SW,225,0.0,0.0,72,0.00,,,0.00,WUHU21623XXSP,2013-08-15 10:16:00,
2013-08-15 05:21:00,57.6,48.6,30.14,SW,225,0.0,0.0,72,0.00,,,0.00,WUHU21623XXSP,2013-08-15 10:21:00,
2013-08-15 05:26:00,57.7,48.7,30.14,SSW,202,0.0,0.0,72,0.00,,,0.00,WUHU21623XXSP,2013-08-15 10:26:00,
2013-08-15 05:31:00,57.7,48.7,30.14,SSW,202,0.0,0.0,72,0.00,,,0.00,WUHU21623XXSP,2013-08-15 10:31:00,
2013-08-15 05:36:00,57.7,48.7,30.14,SSW,202,0.0,0.0,72,0.00,,,0.00,WUHU21623XXSP,2013-08-15 10:36:00,
2013-08-15 05:41:00,57.6,48.6,30.14,South,180,0.0,0.0,72,0.00,,,0.00,WUHU21623XXSP,2013-08-15 10:41:00,
2013-08-15 05:46:00,57.6,48.6,30.14,South,180,0.0,0.0,72,0.00,,,0.00,WUHU21623XXSP,2013-08-15 10:46:00,
2013-08-15 05:51:00,57.4,48.4,30.14,South,180,0.0,0.0,72,0.00,,,0.00,WUHU21623XXSP,2013-08-15 10:51:00,
2013-08-15 05:55:00,57.4,48.7,30.14,South,180,0.0,0.0,73,0.00,,,0.00,WUHU21623XXSP,2013-08-15 10:55:00,
2013-08-15 06:00:00,57.4,48.7,30.14,South,180,0.0,0.0,73,0.00,,,0.00,WUHU21623XXSP,2013-08-15 11:00:00,
2013-08-15 06:06:00,57.4,48.7,30.14,South,180,0.0,0.0,73,0.00,,,0.00,WUHU21623XXSP,2013-08-15 11:06:00,
2013-08-15 06:10:00,57.4,48.7,30.14,South,180,0.0,0.0,73,0.00,,,0.00,WUHU21623XXSP,2013-08-15 11:10:00,
2013-08-15 06:15:00,57.4,48.7,30.14,South,180,0.0,0.0,73,0.00,,,0.00,WUHU21623XXSP,2013-08-15 11:15:00,
2013-08-15 06:20:00,57.6,49.3,30.14,South,180,0.0,0.0,74,0.00,,,0.00,WUHU21623XXSP,2013-08-15 11:20:00,
2013-08-15 06:25:00,57.6,49.3,30.14,South,180,0.0,0.0,74,0.00,,,0.00,WUHU21623XXSP,2013-08-15 11:25:00,
2013-08-15 06:30:00,57.6,49.3,30.14,South,180,0.0,0.0,74,0.00,,,0.00,WUHU21623XXSP,2013-08-15 11:30:00,
2013-08-15 06:35:00,57.6,49.3,30.14,South,180,0.0,0.0,74,0.00,,,0.00,WUHU21623XXSP,2013-08-15 11:35:00,
2013-08-15 06:40:00,57.7,49.5,30.15,South,180,0.0,0.0,74,0.00,,,0.00,WUHU21623XXSP,2013-08-15 11:40:00,
2013-08-15 06:45:00,57.7,49.5,30.15,South,180,0.0,0.0,74,0.00,,,0.00,WUHU21623XXSP,2013-08-15 11:45:00,
2013-08-15 06:50:00,57.9,49.6,30.15,South,180,0.0,0.0,74,0.00,,,0.00,WUHU21623XXSP,2013-08-15 11:50:00,
2013-08-15 06:55:00,57.9,49.6,30.15,South,180,0.0,0.0,74,0.00,,,0.00,WUHU21623XXSP,2013-08-15 11:55:00,
2013-08-15 07:00:00,57.9,49.6,30.16,SSE,157,0.0,0.0,74,0.00,,,0.00,WUHU21623XXSP,2013-08-15 12:00:00,
2013-08-15 07:05:00,57.9,49.6,30.16,SSE,157,0.0,0.0,74,0.00,,,0.00,WUHU21623XXSP,2013-08-15 12:05:00,
2013-08-15 07:10:00,57.9,49.6,30.16,South,180,0.0,0.0,74,0.00,,,0.00,WUHU21623XXSP,2013-08-15 12:10:00,
2013-08-15 07:15:00,57.9,49.6,30.16,South,180,0.0,0.0,74,0.00,,,0.00,WUHU21623XXSP,2013-08-15 12:15:00,
2013-08-15 07:20:00,57.9,49.6,30.16,South,180,0.0,0.0,74,0.00,,,0.00,WUHU21623XXSP,2013-08-15 12:20:00,
2013-08-15 07:25:00,58.1,49.8,30.16,South,180,0.0,0.0,74,0.00,,,0.00,WUHU21623XXSP,2013-08-15 12:25:00,
2013-08-15 07:30:00,58.5,50.2,30.16,South,180,0.0,0.0,74,0.00,,,0.00,WUHU21623XXSP,2013-08-15 12:30:00,
2013-08-15 07:35:00,58.6,50.4,30.16,SSE,157,0.0,0.0,74,0.00,,,0.00,WUHU21623XXSP,2013-08-15 12:35:00,
2013-08-15 07:40:00,59.4,50.7,30.16,SSE,157,0.0,0.0,74,0.00,,,0.00,WUHU21623XXSP,2013-08-15 12:40:00,
2013-08-15 07:45:00,59.9,51.3,30.16,South,180,0.0,0.0,73,0.00,,,0.00,WUHU21623XXSP,2013-08-15 12:45:00,
2013-08-15 07:50:00,60.4,51.4,30.16,South,180,0.0,0.0,72,0.00,,,0.00,WUHU21623XXSP,2013-08-15 12:50:00,
2013-08-15 07:55:00,61.0,52.0,30.16,South,180,0.0,0.0,72,0.00,,,0.00,WUHU21623XXSP,2013-08-15 12:55:00,
2013-08-15 08:00:00,61.7,52.3,30.16,South,180,0.0,0.0,71,0.00,,,0.00,WUHU21623XXSP,2013-08-15 13:00:00,
2013-08-15 08:05:00,62.2,52.4,30.16,South,180,0.0,0.0,70,0.00,,,0.00,WUHU21623XXSP,2013-08-15 13:05:00,
2013-08-15 08:10:00,62.8,52.9,30.16,WNW,292,0.0,0.0,70,0.00,,,0.00,WUHU21623XXSP,2013-08-15 13:10:00,
2013-08-15 08:15:00,63.3,53.0,30.17,WNW,292,0.0,0.0,69,0.00,,,0.00,WUHU21623XXSP,2013-08-15 13:15:00,
2013-08-15 08:20:00,63.5,53.2,30.17,WNW,292,0.0,0.0,69,0.00,,,0.00,WUHU21623XXSP,2013-08-15 13:20:00,
2013-08-15 08:25:00,63.9,53.1,30.17,WNW,292,0.0,0.0,68,0.00,,,0.00,WUHU21623XXSP,2013-08-15 13:25:00,
2013-08-15 08:30:00,64.2,53.5,30.16,West,270,0.0,0.9,68,0.00,,,0.00,WUHU21623XXSP,2013-08-15 13:30:00,
2013-08-15 08:35:00,64.8,54.0,30.17,WNW,292,2.7,2.7,68,0.00,,,0.00,WUHU21623XXSP,2013-08-15 13:35:00,
2013-08-15 08:40:00,65.3,53.6,30.17,West,270,3.6,3.6,66,0.00,,,0.00,WUHU21623XXSP,2013-08-15 13:40:00,
2013-08-15 08:45:00,66.2,53.2,30.17,WNW,292,1.1,3.6,63,0.00,,,0.00,WUHU21623XXSP,2013-08-15 13:45:00,
2013-08-15 08:50:00,66.6,53.5,30.17,NW,315,0.0,1.3,63,0.00,,,0.00,WUHU21623XXSP,2013-08-15 13:50:00,
2013-08-15 08:55:00,66.9,53.5,30.17,NW,315,0.0,0.0,62,0.00,,,0.00,WUHU21623XXSP,2013-08-15 13:55:00,
2013-08-15 09:00:00,67.1,53.6,30.17,WNW,292,1.6,1.6,62,0.00,,,0.00,WUHU21623XXSP,2013-08-15 14:00:00,
2013-08-15 09:05:00,67.1,52.8,30.16,West,270,0.0,1.6,60,0.00,,,0.00,WUHU21623XXSP,2013-08-15 14:05:00,
2013-08-15 09:10:00,67.5,52.6,30.16,West,270,0.0,0.0,59,0.00,,,0.00,WUHU21623XXSP,2013-08-15 14:10:00,
2013-08-15 09:16:00,67.6,52.8,30.16,NW,315,0.4,0.4,59,0.00,,,0.00,WUHU21623XXSP,2013-08-15 14:16:00,
2013-08-15 09:21:00,68.0,52.6,30.16,SSW,202,0.0,0.9,58,0.00,,,0.00,WUHU21623XXSP,2013-08-15 14:21:00,
2013-08-15 09:26:00,68.2,52.3,30.17,WSW,247,0.0,0.9,57,0.00,,,0.00,WUHU21623XXSP,2013-08-15 14:26:00,
2013-08-15 09:31:00,68.2,52.3,30.17,WNW,292,0.0,0.0,57,0.00,,,0.00,WUHU21623XXSP,2013-08-15 14:31:00,
2013-08-15 09:36:00,68.2,52.3,30.17,West,270,0.0,1.1,57,0.00,,,0.00,WUHU21623XXSP,2013-08-15 14:36:00,
2013-08-15 09:41:00,68.9,52.5,30.17,SE,135,0.0,1.1,56,0.00,,,0.00,WUHU21623XXSP,2013-08-15 14:41:00,
2013-08-15 09:46:00,68.7,52.3,30.17,SW,225,0.0,2.7,56,0.00,,,0.00,WUHU21623XXSP,2013-08-15 14:46:00,
2013-08-15 09:52:00,68.9,52.0,30.17,SW,225,0.0,2.7,55,0.00,,,0.00,WUHU21623XXSP,2013-08-15 14:52:00,
2013-08-15 09:57:00,68.9,51.5,30.17,WNW,292,0.0,1.1,54,0.00,,,0.00,WUHU21623XXSP,2013-08-15 14:57:00,
2013-08-15 10:02:00,69.1,52.2,30.16,SW,225,0.0,0.0,55,0.00,,,0.00,WUHU21623XXSP,2013-08-15 15:02:00,
2013-08-15 10:07:00,69.1,51.7,30.16,West,270,0.0,0.0,54,0.00,,,0.00,WUHU21623XXSP,2013-08-15 15:07:00,
2013-08-15 10:12:00,69.1,51.7,30.17,NNW,337,0.0,0.0,54,0.00,,,0.00,WUHU21623XXSP,2013-08-15 15:12:00,
2013-08-15 10:17:00,69.1,51.7,30.16,WSW,247,0.0,2.5,54,0.00,,,0.00,WUHU21623XXSP,2013-08-15 15:17:00,
2013-08-15 10:22:00,69.4,52.0,30.16,WSW,247,0.0,2.5,54,0.00,,,0.00,WUHU21623XXSP,2013-08-15 15:22:00,
2013-08-15 10:27:00,69.4,52.0,30.17,ENE,67,0.0,0.0,54,0.00,,,0.00,WUHU21623XXSP,2013-08-15 15:27:00,
2013-08-15 10:32:00,70.3,52.9,30.17,NW,315,0.0,0.7,54,0.00,,,0.00,WUHU21623XXSP,2013-08-15 15:32:00,
2013-08-15 10:37:00,70.5,52.4,30.17,NNE,22,0.0,0.7,53,0.00,,,0.00,WUHU21623XXSP,2013-08-15 15:37:00,
2013-08-15 10:42:00,70.9,52.3,30.17,NW,315,0.7,0.7,52,0.00,,,0.00,WUHU21623XXSP,2013-08-15 15:42:00,
2013-08-15 10:47:00,71.2,51.7,30.16,WNW,292,0.0,0.7,50,0.00,,,0.00,WUHU21623XXSP,2013-08-15 15:47:00,
2013-08-15 10:52:00,71.2,51.1,30.16,NW,315,0.0,2.7,49,0.00,,,0.00,WUHU21623XXSP,2013-08-15 15:52:00,
2013-08-15 10:57:00,71.6,52.0,30.16,North,0,0.0,2.7,50,0.00,,,0.00,WUHU21623XXSP,2013-08-15 15:57:00,
2013-08-15 11:02:00,71.8,52.1,30.16,West,270,0.0,0.0,50,0.00,,,0.00,WUHU21623XXSP,2013-08-15 16:02:00,
2013-08-15 11:07:00,71.8,51.5,30.16,NW,315,0.0,0.0,49,0.00,,,0.00,WUHU21623XXSP,2013-08-15 16:07:00,
2013-08-15 11:12:00,72.0,51.7,30.16,West,270,0.0,0.0,49,0.00,,,0.00,WUHU21623XXSP,2013-08-15 16:12:00,
2013-08-15 11:17:00,72.0,51.7,30.16,WSW,247,0.0,0.0,49,0.00,,,0.00,WUHU21623XXSP,2013-08-15 16:17:00,
2013-08-15 11:22:00,72.0,51.7,30.16,NW,315,1.8,1.8,49,0.00,,,0.00,WUHU21623XXSP,2013-08-15 16:22:00,
2013-08-15 11:27:00,72.1,51.9,30.16,NW,315,1.8,1.8,49,0.00,,,0.00,WUHU21623XXSP,2013-08-15 16:27:00,
2013-08-15 11:32:00,72.3,52.0,30.16,SW,225,0.0,1.8,49,0.00,,,0.00,WUHU21623XXSP,2013-08-15 16:32:00,
2013-08-15 11:37:00,72.5,52.2,30.16,NW,315,1.6,1.6,49,0.00,,,0.00,WUHU21623XXSP,2013-08-15 16:37:00,
2013-08-15 11:42:00,72.7,53.0,30.16,WNW,292,1.8,1.8,50,0.00,,,0.00,WUHU21623XXSP,2013-08-15 16:42:00,
2013-08-15 11:47:00,72.9,52.5,30.16,West,270,0.0,1.8,49,0.00,,,0.00,WUHU21623XXSP,2013-08-15 16:47:00,
2013-08-15 11:52:00,73.0,53.3,30.16,WSW,247,0.0,0.0,50,0.00,,,0.00,WUHU21623XXSP,2013-08-15 16:52:00,
2013-08-15 11:57:00,72.9,52.5,30.15,South,180,0.0,0.0,49,0.00,,,0.00,WUHU21623XXSP,2013-08-15 16:57:00,
2013-08-15 12:02:00,72.9,51.9,30.16,NNW,337,0.0,0.0,48,0.00,,,0.00,WUHU21623XXSP,2013-08-15 17:02:00,
2013-08-15 12:07:00,73.0,52.1,30.16,SE,135,0.0,0.9,48,0.00,,,0.00,WUHU21623XXSP,2013-08-15 17:07:00,
2013-08-15 12:13:00,73.0,52.7,30.16,WNW,292,0.0,0.9,49,0.00,,,0.00,WUHU21623XXSP,2013-08-15 17:13:00,
2013-08-15 12:18:00,73.0,52.1,30.15,WNW,292,0.0,0.0,48,0.00,,,0.00,WUHU21623XXSP,2013-08-15 17:18:00,
2013-08-15 12:23:00,73.0,52.1,30.15,WSW,247,0.0,0.0,48,0.00,,,0.00,WUHU21623XXSP,2013-08-15 17:23:00,
2013-08-15 12:28:00,73.0,52.1,30.15,WNW,292,0.0,0.0,48,0.00,,,0.00,WUHU21623XXSP,2013-08-15 17:28:00,
2013-08-15 12:33:00,73.0,52.1,30.15,NW,315,0.9,0.9,48,0.00,,,0.00,WUHU21623XXSP,2013-08-15 17:33:00,
2013-08-15 12:39:00,73.2,52.3,30.15,WNW,292,0.0,0.9,48,0.00,,,0.00,WUHU21623XXSP,2013-08-15 17:39:00,
2013-08-15 12:44:00,73.6,52.0,30.14,South,180,0.0,0.0,47,0.00,,,0.00,WUHU21623XXSP,2013-08-15 17:44:00,
2013-08-15 12:49:00,73.8,52.2,30.14,NNW,337,0.7,0.7,47,0.00,,,0.00,WUHU21623XXSP,2013-08-15 17:49:00,
2013-08-15 12:54:00,74.1,52.2,30.14,West,270,0.0,0.7,47,0.00,,,0.00,WUHU21623XXSP,2013-08-15 17:54:00,
2013-08-15 12:59:00,74.1,51.3,30.14,NNW,337,0.0,0.0,45,0.00,,,0.00,WUHU21623XXSP,2013-08-15 17:59:00,
2013-08-15 13:04:00,74.1,51.3,30.14,South,180,0.0,0.0,45,0.00,,,0.00,WUHU21623XXSP,2013-08-15 18:04:00,
2013-08-15 13:09:00,74.1,51.3,30.14,SSW,202,0.0,0.0,45,0.00,,,0.00,WUHU21623XXSP,2013-08-15 18:09:00,
2013-08-15 13:14:00,74.1,51.3,30.14,WNW,292,0.0,0.0,45,0.00,,,0.00,WUHU21623XXSP,2013-08-15 18:14:00,
2013-08-15 13:19:00,74.7,50.6,30.13,WNW,292,3.1,3.1,43,0.00,,,0.00,WUHU21623XXSP,2013-08-15 18:19:00,
2013-08-15 13:25:00,74.8,49.5,30.13,West,270,0.9,3.1,41,0.00,,,0.00,WUHU21623XXSP,2013-08-15 18:25:00,
2013-08-15 13:30:00,75.6,50.2,30.13,West,270,0.0,0.9,41,0.00,,,0.00,WUHU21623XXSP,2013-08-15 18:30:00,
2013-08-15 13:35:00,76.1,50.7,30.13,NNW,337,0.0,0.2,41,0.00,,,0.00,WUHU21623XXSP,2013-08-15 18:35:00,
2013-08-15 13:40:00,76.5,49.7,30.13,WNW,292,1.6,1.6,39,0.00,,,0.00,WUHU21623XXSP,2013-08-15 18:40:00,
2013-08-15 13:45:00,76.5,49.7,30.13,NNW,337,0.0,1.6,39,0.00,,,0.00,WUHU21623XXSP,2013-08-15 18:45:00,
2013-08-15 13:50:00,76.6,49.8,30.13,West,270,0.0,1.6,39,0.00,,,0.00,WUHU21623XXSP,2013-08-15 18:50:00,
2013-08-15 13:55:00,76.6,49.1,30.13,WNW,292,1.8,1.8,38,0.00,,,0.00,WUHU21623XXSP,2013-08-15 18:55:00,
2013-08-15 14:01:00,76.5,48.9,30.13,North,0,0.0,1.8,38,0.00,,,0.00,WUHU21623XXSP,2013-08-15 19:01:00,
2013-08-15 14:06:00,76.1,48.6,30.12,NE,45,0.0,0.0,38,0.00,,,0.00,WUHU21623XXSP,2013-08-15 19:06:00,
2013-08-15 14:11:00,75.6,49.6,30.12,South,180,0.4,0.4,40,0.00,,,0.00,WUHU21623XXSP,2013-08-15 19:11:00,
2013-08-15 14:16:00,75.0,49.7,30.13,South,180,0.0,0.4,41,0.00,,,0.00,WUHU21623XXSP,2013-08-15 19:16:00,
2013-08-15 14:22:00,74.5,49.8,30.12,SSE,157,0.0,0.0,42,0.00,,,0.00,WUHU21623XXSP,2013-08-15 19:22:00,
2013-08-15 14:27:00,74.1,49.5,30.12,SSW,202,0.0,0.0,42,0.00,,,0.00,WUHU21623XXSP,2013-08-15 19:27:00,
2013-08-15 14:32:00,73.9,50.7,30.12,SSW,202,0.0,0.0,44,0.00,,,0.00,WUHU21623XXSP,2013-08-15 19:32:00,
2013-08-15 14:37:00,73.8,50.4,30.12,SSW,202,0.0,0.0,44,0.00,,,0.00,WUHU21623XXSP,2013-08-15 19:37:00,
2013-08-15 14:42:00,73.8,50.4,30.12,South,180,0.9,0.9,44,0.00,,,0.00,WUHU21623XXSP,2013-08-15 19:42:00,
2013-08-15 14:47:00,73.6,50.8,30.12,South,180,0.0,0.9,45,0.00,,,0.00,WUHU21623XXSP,2013-08-15 19:47:00,
2013-08-15 14:52:00,73.4,50.0,30.12,SSW,202,0.0,0.0,44,0.00,,,0.00,WUHU21623XXSP,2013-08-15 19:52:00,
2013-08-15 14:57:00,73.2,49.9,30.12,SSW,202,0.0,0.0,44,0.00,,,0.00,WUHU21623XXSP,2013-08-15 19:57:00,
2013-08-15 15:02:00,73.0,49.7,30.12,South,180,0.0,0.0,44,0.00,,,0.00,WUHU21623XXSP,2013-08-15 20:02:00,
2013-08-15 15:08:00,73.2,51.1,30.12,SSE,157,0.0,0.0,46,0.00,,,0.00,WUHU21623XXSP,2013-08-15 20:08:00,
2013-08-15 15:13:00,73.2,50.5,30.12,South,180,0.0,0.0,45,0.00,,,0.00,WUHU21623XXSP,2013-08-15 20:13:00,
2013-08-15 15:19:00,74.1,50.1,30.12,South,180,0.9,2.7,43,0.00,,,0.00,WUHU21623XXSP,2013-08-15 20:19:00,
2013-08-15 15:24:00,74.7,49.4,30.11,SE,135,0.0,2.7,41,0.00,,,0.00,WUHU21623XXSP,2013-08-15 20:24:00,
2013-08-15 15:29:00,75.0,49.7,30.11,SE,135,0.0,0.7,41,0.00,,,0.00,WUHU21623XXSP,2013-08-15 20:29:00,
2013-08-15 15:34:00,75.0,49.7,30.11,SSE,157,0.0,0.7,41,0.00,,,0.00,WUHU21623XXSP,2013-08-15 20:34:00,
2013-08-15 15:39:00,74.8,49.5,30.11,South,180,0.0,0.0,41,0.00,,,0.00,WUHU21623XXSP,2013-08-15 20:39:00,
2013-08-15 15:44:00,74.8,49.0,30.11,SSE,157,0.0,0.0,40,0.00,,,0.00,WUHU21623XXSP,2013-08-15 20:44:00,
2013-08-15 15:49:00,74.8,49.0,30.11,SSE,157,0.0,0.0,40,0.00,,,0.00,WUHU21623XXSP,2013-08-15 20:49:00,
2013-08-15 15:54:00,74.8,49.5,30.11,SSW,202,0.0,1.1,41,0.00,,,0.00,WUHU21623XXSP,2013-08-15 20:54:00,
2013-08-15 15:59:00,74.7,49.4,30.11,SSE,157,0.0,1.1,41,0.00,,,0.00,WUHU21623XXSP,2013-08-15 20:59:00,
2013-08-15 16:04:00,74.7,49.4,30.10,ESE,112,0.0,0.4,41,0.00,,,0.00,WUHU21623XXSP,2013-08-15 21:04:00,
2013-08-15 16:09:00,74.7,49.4,30.10,SSE,157,0.7,0.7,41,0.00,,,0.00,WUHU21623XXSP,2013-08-15 21:09:00,
2013-08-15 16:15:00,74.7,48.8,30.10,South,180,0.0,0.7,40,0.00,,,0.00,WUHU21623XXSP,2013-08-15 21:15:00,
2013-08-15 16:20:00,74.7,48.8,30.10,SSE,157,0.0,0.0,40,0.00,,,0.00,WUHU21623XXSP,2013-08-15 21:20:00,
2013-08-15 16:25:00,74.7,49.4,30.10,SSW,202,0.0,0.0,41,0.00,,,0.00,WUHU21623XXSP,2013-08-15 21:25:00,
2013-08-15 16:31:00,74.7,49.4,30.10,NW,315,0.0,0.0,41,0.00,,,0.00,WUHU21623XXSP,2013-08-15 21:31:00,
2013-08-15 16:36:00,74.7,49.4,30.11,WSW,247,0.0,0.0,41,0.00,,,0.00,WUHU21623XXSP,2013-08-15 21:36:00,
2013-08-15 16:41:00,74.7,48.8,30.10,West,270,0.0,0.0,40,0.00,,,0.00,WUHU21623XXSP,2013-08-15 21:41:00,
2013-08-15 16:46:00,74.5,48.8,30.10,WNW,292,0.0,0.0,40,0.00,,,0.00,WUHU21623XXSP,2013-08-15 21:46:00,
2013-08-15 16:51:00,74.5,48.6,30.10,WNW,292,0.0,0.0,40,0.00,,,0.00,WUHU21623XXSP,2013-08-15 21:51:00,
2013-08-15 16:56:00,74.3,48.5,30.11,South,180,0.0,0.0,40,0.00,,,0.00,WUHU21623XXSP,2013-08-15 21:56:00,
2013-08-15 17:01:00,74.3,48.5,30.11,West,270,0.0,0.0,40,0.00,,,0.00,WUHU21623XXSP,2013-08-15 22:01:00,
2013-08-15 17:06:00,74.1,48.9,30.11,West,270,0.0,0.0,41,0.00,,,0.00,WUHU21623XXSP,2013-08-15 22:06:00,
2013-08-15 17:11:00,74.1,48.9,30.11,WNW,292,0.0,0.0,41,0.00,,,0.00,WUHU21623XXSP,2013-08-15 22:11:00,
2013-08-15 17:16:00,73.9,49.3,30.11,West,270,0.0,0.0,42,0.00,,,0.00,WUHU21623XXSP,2013-08-15 22:16:00,
2013-08-15 17:21:00,74.1,49.5,30.11,West,270,0.0,0.0,42,0.00,,,0.00,WUHU21623XXSP,2013-08-15 22:21:00,
2013-08-15 17:26:00,73.9,49.3,30.11,WNW,292,0.0,0.0,42,0.00,,,0.00,WUHU21623XXSP,2013-08-15 22:26:00,
2013-08-15 17:31:00,74.1,49.5,30.11,West,270,0.0,1.8,42,0.00,,,0.00,WUHU21623XXSP,2013-08-15 22:31:00,
2013-08-15 17:36:00,74.1,48.9,30.11,West,270,0.0,1.8,41,0.00,,,0.00,WUHU21623XXSP,2013-08-15 22:36:00,
2013-08-15 17:41:00,73.9,48.7,30.11,WNW,292,0.0,0.0,41,0.00,,,0.00,WUHU21623XXSP,2013-08-15 22:41:00,
2013-08-15 17:46:00,73.9,48.1,30.11,WNW,292,0.0,0.0,40,0.00,,,0.00,WUHU21623XXSP,2013-08-15 22:46:00,
2013-08-15 17:51:00,73.8,48.0,30.11,West,270,0.0,0.0,40,0.00,,,0.00,WUHU21623XXSP,2013-08-15 22:51:00,
2013-08-15 17:56:00,73.8,47.2,30.10,West,270,0.0,0.0,39,0.00,,,0.00,WUHU21623XXSP,2013-08-15 22:56:00,
2013-08-15 18:01:00,73.9,47.4,30.11,NW,315,1.6,1.6,39,0.00,,,0.00,WUHU21623XXSP,2013-08-15 23:01:00,
2013-08-15 18:06:00,74.1,47.6,30.11,WSW,247,0.0,1.6,39,0.00,,,0.00,WUHU21623XXSP,2013-08-15 23:06:00,
2013-08-15 18:11:00,74.3,47.0,30.10,SW,225,0.0,0.0,38,0.00,,,0.00,WUHU21623XXSP,2013-08-15 23:11:00,
2013-08-15 18:16:00,74.5,46.4,30.10,West,270,0.0,1.1,37,0.00,,,0.00,WUHU21623XXSP,2013-08-15 23:16:00,
2013-08-15 18:21:00,74.7,46.5,30.10,WNW,292,1.8,1.8,37,0.00,,,0.00,WUHU21623XXSP,2013-08-15 23:21:00,
2013-08-15 18:26:00,74.8,46.7,30.10,SW,225,0.0,1.8,37,0.00,,,0.00,WUHU21623XXSP,2013-08-15 23:26:00,
2013-08-15 18:32:00,74.8,45.9,30.10,WNW,292,0.0,0.0,36,0.00,,,0.00,WUHU21623XXSP,2013-08-15 23:32:00,
2013-08-15 18:37:00,74.7,45.8,30.10,WNW,292,0.0,2.0,36,0.00,,,0.00,WUHU21623XXSP,2013-08-15 23:37:00,
2013-08-15 18:42:00,74.7,45.8,30.10,WNW,292,0.0,0.9,36,0.00,,,0.00,WUHU21623XXSP,2013-08-15 23:42:00,
2013-08-15 18:47:00,74.3,45.4,30.10,WNW,292,0.0,0.0,36,0.00,,,0.00,WUHU21623XXSP,2013-08-15 23:47:00,
2013-08-15 18:52:00,74.1,46.0,30.10,WNW,292,0.0,0.0,37,0.00,,,0.00,WUHU21623XXSP,2013-08-15 23:52:00,
2013-08-15 18:57:00,73.8,46.5,30.10,WNW,292,0.0,0.0,38,0.00,,,0.00,WUHU21623XXSP,2013-08-15 23:57:00,
2013-08-15 19:02:00,73.6,46.3,30.10,WNW,292,0.0,0.0,38,0.00,,,0.00,WUHU21623XXSP,2013-08-16 00:02:00,
2013-08-15 19:07:00,72.9,46.4,30.10,WNW,292,0.0,0.0,39,0.00,,,0.00,WUHU21623XXSP,2013-08-16 00:07:00,
2013-08-15 19:12:00,72.7,47.0,30.10,WNW,292,0.0,0.0,40,0.00,,,0.00,WUHU21623XXSP,2013-08-16 00:12:00,
2013-08-15 19:17:00,72.3,47.3,30.10,WNW,292,0.0,0.0,41,0.00,,,0.00,WUHU21623XXSP,2013-08-16 00:17:00,
2013-08-15 19:22:00,72.1,47.1,30.10,WNW,292,0.0,0.0,41,0.00,,,0.00,WUHU21623XXSP,2013-08-16 00:22:00,
2013-08-15 19:27:00,71.8,47.4,30.10,WNW,292,0.0,0.0,42,0.00,,,0.00,WUHU21623XXSP,2013-08-16 00:27:00,
2013-08-15 19:32:00,71.4,47.1,30.11,WNW,292,0.0,0.0,42,0.00,,,0.00,WUHU21623XXSP,2013-08-16 00:32:00,
2013-08-15 19:37:00,71.2,47.5,30.11,WNW,292,0.0,0.0,43,0.00,,,0.00,WUHU21623XXSP,2013-08-16 00:37:00,
2013-08-15 19:43:00,71.1,47.3,30.11,WNW,292,0.0,0.0,43,0.00,,,0.00,WUHU21623XXSP,2013-08-16 00:43:00,
2013-08-15 19:48:00,70.5,46.9,30.11,WNW,292,0.0,0.0,43,0.00,,,0.00,WUHU21623XXSP,2013-08-16 00:48:00,
2013-08-15 19:52:00,70.5,48.0,30.11,WNW,292,0.0,0.0,45,0.00,,,0.00,WUHU21623XXSP,2013-08-16 00:52:00,
2013-08-15 19:57:00,70.2,47.9,30.11,WNW,292,0.0,0.0,45,0.00,,,0.00,WUHU21623XXSP,2013-08-16 00:57:00,
2013-08-15 20:03:00,70.0,48.1,30.11,WNW,292,0.0,0.0,46,0.00,,,0.00,WUHU21623XXSP,2013-08-16 01:03:00,
2013-08-15 20:08:00,69.8,48.0,30.11,WNW,292,0.0,0.0,46,0.00,,,0.00,WUHU21623XXSP,2013-08-16 01:08:00,
2013-08-15 20:13:00,69.6,47.8,30.11,WNW,292,0.0,0.0,46,0.00,,,0.00,WUHU21623XXSP,2013-08-16 01:13:00,
2013-08-15 20:18:00,69.3,47.5,30.11,WNW,292,0.0,0.0,46,0.00,,,0.00,WUHU21623XXSP,2013-08-16 01:18:00,
2013-08-15 20:23:00,68.9,47.2,30.11,WNW,292,0.0,0.0,46,0.00,,,0.00,WUHU21623XXSP,2013-08-16 01:23:00,
2013-08-15 20:28:00,68.9,47.2,30.11,WNW,292,0.0,0.0,46,0.00,,,0.00,WUHU21623XXSP,2013-08-16 01:28:00,
2013-08-15 20:33:00,68.9,47.2,30.11,WNW,292,0.0,0.0,46,0.00,,,0.00,WUHU21623XXSP,2013-08-16 01:33:00,
2013-08-15 20:38:00,68.5,48.0,30.11,WNW,292,0.0,0.0,48,0.00,,,0.00,WUHU21623XXSP,2013-08-16 01:38:00,
2013-08-15 20:43:00,68.4,47.9,30.11,WNW,292,0.0,0.0,48,0.00,,,0.00,WUHU21623XXSP,2013-08-16 01:43:00,
2013-08-15 20:48:00,68.0,48.1,30.11,WNW,292,0.0,0.0,49,0.00,,,0.00,WUHU21623XXSP,2013-08-16 01:48:00,
2013-08-15 20:53:00,67.6,47.8,30.12,WNW,292,0.0,0.0,49,0.00,,,0.00,WUHU21623XXSP,2013-08-16 01:53:00,
2013-08-15 20:58:00,67.5,47.7,30.12,WNW,292,0.0,0.0,49,0.00,,,0.00,WUHU21623XXSP,2013-08-16 01:58:00,
2013-08-15 21:03:00,67.1,47.9,30.12,WNW,292,0.0,0.0,50,0.00,,,0.00,WUHU21623XXSP,2013-08-16 02:03:00,
2013-08-15 21:08:00,67.1,48.4,30.12,WNW,292,0.0,0.0,51,0.00,,,0.00,WUHU21623XXSP,2013-08-16 02:08:00,
2013-08-15 21:13:00,66.7,48.1,30.12,WNW,292,0.0,0.0,51,0.00,,,0.00,WUHU21623XXSP,2013-08-16 02:13:00,
2013-08-15 21:18:00,66.4,47.8,30.12,WNW,292,0.0,0.0,51,0.00,,,0.00,WUHU21623XXSP,2013-08-16 02:18:00,
2013-08-15 21:23:00,66.6,48.4,30.12,WNW,292,0.0,0.0,52,0.00,,,0.00,WUHU21623XXSP,2013-08-16 02:23:00,
2013-08-15 21:28:00,66.4,48.3,30.12,WNW,292,0.0,0.0,52,0.00,,,0.00,WUHU21623XXSP,2013-08-16 02:28:00,
2013-08-15 21:33:00,66.2,48.1,30.12,WNW,292,0.0,0.0,52,0.00,,,0.00,WUHU21623XXSP,2013-08-16 02:33:00,
2013-08-15 21:38:00,66.0,47.9,30.12,WNW,292,0.0,0.0,52,0.00,,,0.00,WUHU21623XXSP,2013-08-16 02:38:00,
2013-08-15 21:43:00,65.7,47.6,30.13,WNW,292,0.0,0.0,52,0.00,,,0.00,WUHU21623XXSP,2013-08-16 02:43:00,
2013-08-15 21:48:00,65.5,47.9,30.13,WNW,292,0.0,0.0,53,0.00,,,0.00,WUHU21623XXSP,2013-08-16 02:48:00,
2013-08-15 21:53:00,65.5,47.9,30.13,WNW,292,0.0,0.0,53,0.00,,,0.00,WUHU21623XXSP,2013-08-16 02:53:00,
2013-08-15 21:58:00,65.3,47.7,30.13,WNW,292,0.0,0.0,53,0.00,,,0.00,WUHU21623XXSP,2013-08-16 02:58:00,
2013-08-15 22:03:00,65.1,47.7,30.13,WNW,292,0.0,0.0,54,0.00,,,0.00,WUHU21623XXSP,2013-08-16 03:03:00,
2013-08-15 22:08:00,65.1,48.0,30.13,WNW,292,0.0,0.0,54,0.00,,,0.00,WUHU21623XXSP,2013-08-16 03:08:00,
2013-08-15 22:13:00,64.8,48.1,30.13,WNW,292,0.0,0.0,55,0.00,,,0.00,WUHU21623XXSP,2013-08-16 03:13:00,
2013-08-15 22:18:00,64.8,48.1,30.13,WNW,292,0.0,0.0,55,0.00,,,0.00,WUHU21623XXSP,2013-08-16 03:18:00,
2013-08-15 22:23:00,64.8,48.6,30.13,WNW,292,0.0,0.0,56,0.00,,,0.00,WUHU21623XXSP,2013-08-16 03:23:00,
2013-08-15 22:28:00,64.6,48.4,30.13,WNW,292,0.0,0.0,56,0.00,,,0.00,WUHU21623XXSP,2013-08-16 03:28:00,
2013-08-15 22:33:00,64.6,48.4,30.13,WNW,292,0.0,0.0,56,0.00,,,0.00,WUHU21623XXSP,2013-08-16 03:33:00,
2013-08-15 22:38:00,64.6,48.9,30.14,WNW,292,0.0,0.0,57,0.00,,,0.00,WUHU21623XXSP,2013-08-16 03:38:00,
2013-08-15 22:43:00,64.4,48.7,30.13,WNW,292,0.0,0.0,57,0.00,,,0.00,WUHU21623XXSP,2013-08-16 03:43:00,
2013-08-15 22:48:00,64.4,48.7,30.14,WNW,292,0.0,0.0,57,0.00,,,0.00,WUHU21623XXSP,2013-08-16 03:48:00,
2013-08-15 22:53:00,64.2,48.7,30.14,WNW,292,0.0,0.0,58,0.00,,,0.00,WUHU21623XXSP,2013-08-16 03:53:00,
2013-08-15 22:58:00,64.2,49.0,30.14,WNW,292,0.0,0.0,58,0.00,,,0.00,WUHU21623XXSP,2013-08-16 03:58:00,
2013-08-15 23:01:00,64.2,49.0,30.14,WNW,292,0.0,0.0,58,0.00,,,0.00,WUHU21623XXSP,2013-08-16 04:01:00,
2013-08-15 23:06:00,64.0,48.9,30.14,WNW,292,0.0,0.0,58,0.00,,,0.00,WUHU21623XXSP,2013-08-16 04:06:00,
2013-08-15 23:11:00,63.9,48.7,30.14,WNW,292,0.0,0.0,58,0.00,,,0.00,WUHU21623XXSP,2013-08-16 04:11:00,
2013-08-15 23:16:00,63.9,49.2,30.14,WNW,292,0.0,0.0,59,0.00,,,0.00,WUHU21623XXSP,2013-08-16 04:16:00,
2013-08-15 23:21:00,63.5,48.9,30.14,WNW,292,0.0,0.0,59,0.00,,,0.00,WUHU21623XXSP,2013-08-16 04:21:00,
2013-08-15 23:26:00,63.5,48.9,30.14,WNW,292,0.0,0.0,59,0.00,,,0.00,WUHU21623XXSP,2013-08-16 04:26:00,
2013-08-15 23:31:00,63.5,49.4,30.14,WNW,292,0.0,0.0,60,0.00,,,0.00,WUHU21623XXSP,2013-08-16 04:31:00,
2013-08-15 23:36:00,63.3,49.2,30.14,WNW,292,0.0,0.0,60,0.00,,,0.00,WUHU21623XXSP,2013-08-16 04:36:00,
2013-08-15 23:41:00,63.1,49.5,30.14,WNW,292,0.0,0.0,61,0.00,,,0.00,WUHU21623XXSP,2013-08-16 04:41:00,
2013-08-15 23:46:00,63.1,49.5,30.15,WNW,292,0.0,0.0,61,0.00,,,0.00,WUHU21623XXSP,2013-08-16 04:46:00,
2013-08-15 23:51:00,63.0,49.3,30.14,WNW,292,0.0,0.0,61,0.00,,,0.00,WUHU21623XXSP,2013-08-16 04:51:00,
2013-08-15 23:56:00,63.0,49.7,30.14,WNW,292,0.0,0.0,62,0.00,,,0.00,WUHU21623XXSP,2013-08-16 04:56:00,